Flag for Germany Weather past 2 weeks in Melsungen, Hesse, Germany

Now
42 °F

Overcast.


Feels Like: 40 °F
Forecast: 39 / 52 °F
Wind: 3 mph from Southwest

Location: Fritzlar

Current Time: Mar 27, 2015 at 9:33:23 AM

Latest Report: Mar 27, 2015 at 8:00 AM


Visibility: 7 mi

Pressure: 29.93 "Hg

Humidity: 85%

Dew point: 37 °F

Location of MelsungenLocation

Historic Weather in Melsungen — Graph

°F

Melsungen temperature yesterday

Maximum temperature yesterday: 47 °F (at 4:00 PM)
Minimum temperature yesterday: 41 °F (at 7:00 AM)
Average temperature yesterday: 43 °F

Past Weeks' High & Low Weather Summary

 TemperatureHumidityPressure
High64 °F (Mar 25, 4:00 PM)98% (Mar 20, 8:00 AM)30.52 "Hg (Mar 20, 8:00 AM)
Low26 °F (Mar 23, 6:00 AM)40% (Mar 25, 3:00 PM)29.59 "Hg (Mar 25, 4:00 PM)
Average41 °F78%30.16 "Hg
* Reported Mar 12 8:00 AM — Mar 27 8:00 AM, Melsungen, Weather by CustomWeather, © 2015

Note: Actual official high and low records may vary slightly from our data, if they occured in-between our weather recording intervals... More about our weather records

Advertising

Melsungen weather history for previous 24 hours

 ConditionsComfort  
Time TempWeatherWind HumidityBarometerVisibility
8:00 AM
Fri, Mar 27
42 °FOvercast.3 mph85%29.93 "Hg7 mi
7:00 AM38 °FPartly sunny.2 mph91%29.91 "Hg8 mi
6:00 AM40 °FSprinkles. Overcast.3 mph85%29.88 "Hg8 mi
5:00 AM37 °FClear.3 mph91%29.86 "Hg9 mi
3:00 AM39 °FPassing clouds.5 mph87%29.84 "Hg9 mi
2:00 AM41 °FOvercast.5 mph84%29.82 "Hg9 mi
1:00 AM41 °FOvercast.5 mph82%29.81 "Hg9 mi
12:00 AM41 °FOvercast.5 mph80%29.80 "Hg9 mi
11:00 PM
Thu, Mar 26
41 °FOvercast.5 mph78%29.80 "Hg12 mi
10:00 PM41 °FOvercast.6 mph74%29.80 "Hg12 mi
9:00 PM42 °FOvercast.6 mph67%29.80 "Hg12 mi
8:00 PM44 °FLight rain. Overcast.7 mph62%29.80 "Hg9 mi
7:00 PM45 °FLight rain. Overcast.6 mph68%29.76 "Hg9 mi
6:00 PM46 °FOvercast.3 mph59%29.75 "Hg12 mi
5:00 PM46 °FOvercast.5 mph59%29.75 "Hg12 mi
4:00 PM47 °FOvercast.5 mph66%29.76 "Hg11 mi
3:00 PM45 °FOvercast.6 mph72%29.78 "Hg9 mi
2:00 PM45 °FOvercast.6 mph68%29.78 "Hg9 mi
1:00 PM44 °FOvercast.2 mph78%29.79 "Hg7 mi
12:00 PM43 °FOvercast.1 mph74%29.80 "Hg7 mi
11:00 AM43 °FOvercast.2 mph74%29.80 "Hg7 mi
10:00 AM42 °FOvercast.2 mph77%29.81 "Hg7 mi
9:00 AM41 °FOvercast.2 mph80%29.81 "Hg6 mi
Weather by CustomWeather, © 2015

See weather overviewHow to use our weather pages